Location: Ajisawe
(8.4333°N, 4.3833°E)
Time: 04:19:04
(UTC+00:00)

Explorer 7 - Visible Passes

Search period start: 14 April 2021 00:00
Search period end: 24 April 2021 00:00
Orbit: 484 x 677 km, 50.3° (Epoch: 12 April)

Date Brightness Start Highest point End Pass type
(mag) Time Alt. Az. Time Alt. Az. Time Alt. Az.
14 Apr 7.8 18:22:14 10° S 18:25:16 23° SE 18:28:22 10° ENE visible
14 Apr 9.5 20:02:56 10° W 20:04:56 17° WNW 20:04:56 17° WNW visible
15 Apr 10.2 04:40:53 10° NNE 04:43:24 14° NE 04:45:55 10° E visible
15 Apr 6.8 18:25:58 10° SSW 18:29:38 51° SE 18:33:26 10° NE visible
16 Apr 9.6 04:43:55 10° N 04:47:57 25° NE 04:51:57 10° ESE visible
16 Apr 7.0 18:30:18 10° SW 18:34:02 66° NW 18:37:55 10° NNE visible
17 Apr 8.3 04:47:43 10° NNW 04:52:26 48° NE 04:57:07 10° SE visible
17 Apr 8.8 18:35:12 10° WSW 18:38:30 29° NW 18:41:55 10° N visible
18 Apr 7.2 04:51:58 10° NW 04:56:52 87° SW 05:01:43 10° SE visible
18 Apr 9.7 18:40:58 10° W 18:43:02 14° NW 18:45:08 10° NNW visible
19 Apr 10.0 03:17:41 10° N 03:20:42 16° NE 03:23:44 10° E visible
19 Apr 7.6 04:56:37 10° NW 05:01:15 44° SW 05:05:52 10° SSE visible
20 Apr 9.0 03:23:20 23° NNE 03:25:13 30° NE 03:29:29 10° ESE visible
20 Apr 8.4 05:01:48 10° WNW 05:05:39 23° SW 05:09:27 10° S visible
21 Apr 8.0 03:30:26 50° E 03:30:26 50° E 03:34:28 10° SE visible
21 Apr 9.1 05:08:14 10° WSW 05:10:02 12° SW 05:11:49 10° SSW visible
22 Apr 9.0 03:37:15 22° SSE 03:37:15 22° SSE 03:38:58 10° SSE visible
